Weather History for Midlothian, TX

Change the Weather History Date:

Friday, October 19, 2012

  Actual Average (KRBD) Record (KRBD)
Temperature  
Mean Temperature 60 °F -  
Max Temperature 77 °F 74 °F 91 °F (2004)
Min Temperature 44 °F 54 °F 42 °F (2013)
Degree Days  
Heating Degree Days 4    
Growing Degree Days 10 (Base 50)    
Moisture  
Dew Point 31 °F    
Average Humidity 39    
Maximum Humidity 71    
Minimum Humidity 13    
Precipitation  
Precipitation 0.00 in - - ()
Sea Level Pressure  
Sea Level Pressure 30.00 in    
Wind  
Wind Speed 6 mph (WNW)    
Max Wind Speed 14 mph    
Max Gust Speed 20 mph    
Visibility 10 miles    
Events      
Averages and records for this station are not official NWS values.
T = Trace of Precipitation, MM = Missing Value Source: NWS Daily Summary

Daily Weather History Graph

Daily Weather History Graph

Search for Another Location

Airport:

Trip Planner

Search our weather history database for the weather conditions in past years. The results will help you decide how hot, cold, wet, or windy it might be!

Date:

Astronomy

Oct. 19, 2012 Rise Set
Actual Time 7:34 AM CDT 6:49 PM CDT
Civil Twilight 7:09 AM CDT 7:14 PM CDT
Nautical Twilight 6:41 AM CDT 7:43 PM CDT
Astronomical Twilight 6:12 AM CDT 8:11 PM CDT
Moon 12:07 PM CDT (10/19) 10:40 PM CDT (10/19)
Length of Visible Light 12h 04m
Length of Day
11h 14m
Waxing Crescent, 24% of the Moon is Illuminated
Oct 19
Waxing Crescent
Oct 21
First Quarter
Oct 29
Full
Nov 6
Last Quarter
Nov 13
New

Hourly Weather History & Observations

Time (CDT) Temp. Windchill Dew Point Humidity Pressure Visibility Wind Dir Wind Speed Gust Speed Precip Events Conditions
1:35 AM 50.0 °F - 35.6 °F 58% 30.00 in 10.0 mi West 4.6 mph - N/A   Clear
1:55 AM 46.4 °F 44.3 °F 35.6 °F 66% 30.00 in 10.0 mi West 4.6 mph - N/A   Clear
2:15 AM 44.6 °F 43.1 °F 35.6 °F 71% 29.99 in 10.0 mi West 3.5 mph - N/A   Clear
2:35 AM 46.4 °F 45.2 °F 35.6 °F 66% 30.00 in 10.0 mi West 3.5 mph - N/A   Clear
2:55 AM 48.2 °F - 35.6 °F 62% 29.99 in 10.0 mi West 3.5 mph - N/A   Clear
3:15 AM 46.4 °F 44.3 °F 35.6 °F 66% 30.00 in 10.0 mi WNW 4.6 mph - N/A   Clear
3:35 AM 51.8 °F - 33.8 °F 50% 29.99 in 10.0 mi West 5.8 mph - N/A   Clear
4:15 AM 50.0 °F - 32.0 °F 50% 29.99 in 10.0 mi West 5.8 mph - N/A   Clear
4:35 AM 51.8 °F - 32.0 °F 47% 29.99 in 10.0 mi West 4.6 mph - N/A   Clear
4:55 AM 51.8 °F - 32.0 °F 47% 29.99 in 10.0 mi West 4.6 mph - N/A   Clear
5:15 AM 48.2 °F - 33.8 °F 58% 30.00 in 10.0 mi West 5.8 mph - N/A   Clear
5:35 AM 50.0 °F - 32.0 °F 50% 30.00 in 10.0 mi West 5.8 mph - N/A   Clear
5:55 AM 50.0 °F - 32.0 °F 50% 30.01 in 10.0 mi West 4.6 mph - N/A   Clear
6:35 AM 50.0 °F - 32.0 °F 50% 30.01 in 10.0 mi West 4.6 mph - N/A   Clear
6:55 AM 50.0 °F - 32.0 °F 50% 30.02 in 10.0 mi West 4.6 mph - N/A   Clear
7:15 AM 46.4 °F 44.3 °F 33.8 °F 62% 30.01 in 10.0 mi West 4.6 mph - N/A   Clear
7:35 AM 50.0 °F - 33.8 °F 54% 30.03 in 10.0 mi NW 9.2 mph - N/A   Clear
7:55 AM 48.2 °F - 35.6 °F 62% 30.03 in 10.0 mi WNW 3.5 mph - N/A   Clear
8:35 AM 50.0 °F - 37.4 °F 62% 30.04 in 10.0 mi West 3.5 mph - N/A   Clear
8:55 AM 51.8 °F - 37.4 °F 58% 30.05 in 10.0 mi West 5.8 mph - N/A   Clear
9:15 AM 55.4 °F - 37.4 °F 51% 30.05 in 10.0 mi West 6.9 mph - N/A   Clear
9:35 AM 59.0 °F - 35.6 °F 42% 30.06 in 10.0 mi West 6.9 mph - N/A   Clear
9:55 AM 60.8 °F - 33.8 °F 36% 30.06 in 10.0 mi WNW 6.9 mph - N/A   Clear
10:15 AM 62.6 °F - 33.8 °F 34% 30.06 in 10.0 mi West 9.2 mph - N/A   Clear
10:35 AM 62.6 °F - 32.0 °F 32% 30.06 in 10.0 mi WNW 9.2 mph - N/A   Clear
11:15 AM 66.2 °F - 32.0 °F 28% 30.06 in 10.0 mi WNW 8.1 mph - N/A   Clear
11:35 AM 68.0 °F - 26.6 °F 21% 30.05 in 10.0 mi NW 11.5 mph - N/A   Clear
12:35 PM 71.6 °F - 24.8 °F 17% 30.05 in 10.0 mi NW 13.8 mph - N/A   Clear
12:55 PM 71.6 °F - 26.6 °F 19% 30.04 in 10.0 mi WNW 9.2 mph 17.3 mph N/A   Clear
1:15 PM 71.6 °F - 26.6 °F 19% 30.03 in 10.0 mi WNW 9.2 mph 17.3 mph N/A   Clear
2:15 PM 73.4 °F - 24.8 °F 16% 29.99 in 10.0 mi NW 11.5 mph 19.6 mph N/A   Clear
2:35 PM 73.4 °F - 26.6 °F 18% 29.98 in 10.0 mi NW 10.4 mph 18.4 mph N/A   Clear
2:55 PM 75.2 °F - 24.8 °F 15% 29.98 in 10.0 mi NW 11.5 mph - N/A   Clear
3:15 PM 75.2 °F - 24.8 °F 15% 29.97 in 10.0 mi NW 8.1 mph - N/A   Clear
3:35 PM 75.2 °F - 24.8 °F 15% 29.97 in 10.0 mi WNW 9.2 mph - N/A   Clear
4:35 PM 77.0 °F - 23.0 °F 13% 29.94 in 10.0 mi WNW 9.2 mph - N/A   Clear
4:55 PM 75.2 °F - 24.8 °F 15% 29.94 in 10.0 mi WNW 6.9 mph - N/A   Clear
5:15 PM 75.2 °F - 26.6 °F 17% 29.93 in 10.0 mi NW 4.6 mph - N/A   Clear
5:35 PM 75.2 °F - 24.8 °F 15% 29.93 in 10.0 mi WNW 5.8 mph - N/A   Clear
5:55 PM 73.4 °F - 26.6 °F 18% 29.92 in 10.0 mi Calm Calm - N/A   Clear
6:15 PM 73.4 °F - 30.2 °F 20% 29.92 in 10.0 mi Calm Calm - N/A   Clear
6:35 PM 71.6 °F - 32.0 °F 23% 29.92 in 10.0 mi Calm Calm - N/A   Clear
6:55 PM 68.0 °F - 32.0 °F 26% 29.92 in 10.0 mi Calm Calm - N/A   Clear
7:35 PM 64.4 °F - 32.0 °F 30% 29.92 in 10.0 mi East 3.5 mph - N/A   Clear
11:55 PM 55.4 °F - 32.0 °F 41% 29.94 in 10.0 mi SSE 3.5 mph - N/A   Clear